Weather History for Spokane, WA

Change the Weather History Date:

Tuesday, February 19, 2013

  Actual Average Record
Temperature  
Mean Temperature 31 °F 34 °F  
Max Temperature 35 °F 41 °F 61 °F (1958)
Min Temperature 27 °F 26 °F -13 °F (1882)
Degree Days  
Heating Degree Days 34 32  
Month to date heating degree days 594 622  
Since 1 July heating degree days 4262 4555  
Cooling Degree Days 0 0  
Month to date cooling degree days 0 0  
Year to date cooling degree days 0 0  
Moisture  
Dew Point 29 °F    
Average Humidity 88    
Maximum Humidity 100    
Minimum Humidity 75    
Precipitation  
Precipitation 0.16 in 0.05 in 0.78 in (1884)
Month to date precipitation 0.20 0.89  
Year to date precipitation 1.83 2.68  
Snow  
Snow 1.20 in 0.30 in 11.00 in (1993)
Month to date snowfall 1.6 5.0  
Since 1 July snowfall 39.8 38.5  
Snow Depth 1.00 in    
Sea Level Pressure  
Sea Level Pressure 29.77 in    
Wind  
Wind Speed 4 mph (NW)    
Max Wind Speed 9 mph    
Max Gust Speed 10 mph    
Visibility 4 miles    
Events Snow    
T = Trace of Precipitation, MM = Missing Value Source: NWS Daily Summary

Daily Weather History Graph

Daily Weather History Graph

Search for Another Location

Airport:

Trip Planner

Search our weather history database for the weather conditions in past years. The results will help you decide how hot, cold, wet, or windy it might be!

Date:

Astronomy

Feb. 19, 2013 Rise Set
Actual Time 6:48 AM PST 5:20 PM PST
Civil Twilight 6:16 AM PST 5:51 PM PST
Nautical Twilight 5:41 AM PST 6:27 PM PST
Astronomical Twilight 5:05 AM PST 7:03 PM PST
Moon 11:42 AM PST (2/19) 2:37 AM PST (2/19)
Length of Visible Light 11h 34m
Length of Day
10h 31m
Waxing Gibbous, 68% of the Moon is Illuminated
Feb 19
Waxing Gibbous
Feb 25
Full
Mar 4
Last Quarter
Mar 11
New
Mar 19
First Quarter

Hourly Weather History & Observations

Time (PST) Temp. Windchill Dew Point Humidity Pressure Visibility Wind Dir Wind Speed Gust Speed Precip Events Conditions
12:53 AM 34.0 °F 28.8 °F 27.0 °F 75% 29.78 in 5.0 mi SE 5.8 mph - 0.00 in Snow Light Snow
1:08 AM 33.8 °F 29.6 °F 28.4 °F 81% 29.74 in 3.0 mi SSE 4.6 mph - 0.00 in Snow Light Snow
1:53 AM 32.0 °F - 30.0 °F 92% 29.78 in 3.0 mi Calm Calm - 0.02 in Snow Light Snow
2:35 AM 32.0 °F - 30.2 °F 93% 29.72 in 2.0 mi Calm Calm - 0.02 in Snow Light Snow
2:53 AM 32.0 °F - 30.9 °F 96% 29.76 in 2.0 mi Calm Calm - 0.03 in Snow Light Snow
3:35 AM 32.0 °F - 30.2 °F 93% 29.71 in 3.0 mi Calm Calm - 0.02 in Snow Light Snow
3:53 AM 32.0 °F - 30.0 °F 92% 29.75 in 1.5 mi Calm Calm - 0.02 in Snow Light Snow
4:41 AM 32.0 °F 27.5 °F 30.2 °F 93% 29.70 in 0.5 mi NE 4.6 mph - 0.02 in Snow Light Snow
4:53 AM 30.9 °F 26.2 °F 30.0 °F 96% 29.74 in 0.5 mi NE 4.6 mph - 0.02 in Snow Light Snow
5:18 AM 30.2 °F 24.3 °F 30.2 °F 100% 29.70 in 1.0 mi ENE 5.8 mph - 0.01 in Snow Light Snow
5:53 AM 30.9 °F 25.2 °F 30.0 °F 96% 29.74 in 1.0 mi NE 5.8 mph - 0.02 in Snow Light Snow
6:02 AM 30.2 °F 26.7 °F 30.2 °F 100% 29.70 in 0.5 mi NE 3.5 mph - 0.00 in Snow Light Snow
6:53 AM 30.9 °F 26.2 °F 30.0 °F 96% 29.74 in 0.5 mi NNE 4.6 mph - 0.01 in Snow Light Snow
7:53 AM 30.9 °F 26.2 °F 30.0 °F 96% 29.74 in 0.5 mi NE 4.6 mph - 0.01 in Snow Light Snow
8:18 AM 32.0 °F 27.5 °F 30.2 °F 93% 29.70 in 0.5 mi NE 4.6 mph - 0.00 in Snow Light Snow
8:53 AM 32.0 °F 27.5 °F 30.0 °F 92% 29.75 in 0.5 mi NNE 4.6 mph - 0.00 in Snow Light Snow
10:09 AM 32.0 °F 27.5 °F 30.2 °F 93% 29.69 in 1.0 mi North 4.6 mph - 0.00 in Snow Light Snow
10:33 AM 33.8 °F 29.6 °F 30.2 °F 87% 29.69 in 1.0 mi North 4.6 mph - 0.00 in Snow Light Snow
10:53 AM 33.1 °F 28.7 °F 30.0 °F 89% 29.74 in 1.0 mi North 4.6 mph - 0.01 in Snow Light Snow
11:53 AM 34.0 °F 31.0 °F 30.9 °F 89% 29.75 in 1.0 mi NNW 3.5 mph - 0.00 in Snow Light Snow
12:53 PM 34.0 °F 31.0 °F 30.9 °F 89% 29.75 in 1.8 mi NW 3.5 mph - 0.01 in Snow Light Snow
1:24 PM 33.8 °F 30.8 °F 32.0 °F 93% 29.71 in 2.0 mi WNW 3.5 mph - 0.00 in Snow Light Snow
1:53 PM 34.0 °F 31.0 °F 30.9 °F 89% 29.76 in 2.0 mi WNW 3.5 mph - 0.00 in Snow Light Snow
2:50 PM 33.8 °F 29.6 °F 30.2 °F 87% 29.72 in 3.0 mi West 4.6 mph - 0.01 in Snow Light Snow
2:53 PM 34.0 °F 28.8 °F 30.9 °F 89% 29.77 in 3.0 mi West 5.8 mph - 0.01 in Snow Light Snow
4:31 PM 33.8 °F 27.0 °F 30.2 °F 87% 29.74 in 7.0 mi West 8.1 mph - N/A   Scattered Clouds
4:53 PM 34.0 °F 28.8 °F 30.9 °F 89% 29.79 in 10.0 mi West 5.8 mph - N/A   Scattered Clouds
5:53 PM 32.0 °F 28.7 °F 30.0 °F 92% 29.81 in 10.0 mi West 3.5 mph - N/A   Mostly Cloudy
6:53 PM 32.0 °F 28.7 °F 30.0 °F 92% 29.83 in 10.0 mi WSW 3.5 mph - N/A   Overcast
7:53 PM 30.9 °F 27.5 °F 28.9 °F 92% 29.84 in 10.0 mi SW 3.5 mph - N/A   Mostly Cloudy
8:53 PM 30.0 °F 25.2 °F 28.0 °F 92% 29.86 in 10.0 mi South 4.6 mph - N/A   Mostly Cloudy
9:53 PM 28.9 °F 21.9 °F 26.1 °F 89% 29.87 in 10.0 mi SW 6.9 mph - N/A   Scattered Clouds
10:41 PM 28.4 °F 21.2 °F 24.8 °F 86% 29.82 in 10.0 mi SW 6.9 mph - N/A   Mostly Cloudy
10:53 PM 28.0 °F 20.8 °F 25.0 °F 88% 29.88 in 10.0 mi SW 6.9 mph - N/A   Mostly Cloudy
11:20 PM 30.2 °F 25.4 °F 26.6 °F 86% 29.83 in 10.0 mi SSW 4.6 mph - N/A   Overcast
11:53 PM 30.9 °F 26.2 °F 28.0 °F 89% 29.89 in 10.0 mi SSW 4.6 mph - N/A   Overcast